Location: Aiyekoto
(8.4333°N, 4.3667°E)
Time: 01:28:39
(UTC+00:00)

Cosmos 1666 Rocket - Pass Details

Date: 07 June 2020
Orbit: 603 x 634 km, 82.5° (Epoch: 13 July)

Event Time Altitude Azimuth Distance (km) Brightness Sun altitude
Exits shadow 04:15:06 - 184° (S) 2,156 6.0 -16.2°
Reaches altitude 10° 04:15:31 10° 184° (S) 1,991 5.9 -16.1°
Maximum altitude 04:19:56 90° 100° (E) 631 3.5 -15.1°
Drops below altitude 10° 04:24:23 10° 4° (N) 2,004 6.6 -14.1°
Sets 04:26:37 0° 4° (N) 2,913 7.4 -13.6°
